This is the latest recevied weather packets stored in our database for station/object N4RCT. If no packets are shown the sender has not sent any weather packets the latest 10 day(s).
| Time | Temp. | Humidity | Pressure | Rain* | Wind** | Luminosity | Snow |
|---|---|---|---|---|---|---|---|
| 1778000506 | 25° C | 47% | 1014.5 hPa | 0 mm | - | 780 W/m² | - |
| 1778000201 | 25° C | 47% | 1014.4 hPa | 0 mm | - | 766 W/m² | - |
| 1777999898 | 25° C | 45% | 1014.6 hPa | 0 mm | - | 783 W/m² | - |
| 1777999593 | 25° C | 46% | 1014.3 hPa | 0 mm | - | 769 W/m² | - |
| 1777999291 | 24.44° C | 46% | 1014.3 hPa | 0 mm | - | 194 W/m² | - |
| 1777998989 | 24.44° C | 49% | 1014.4 hPa | 0 mm | - | 787 W/m² | - |
| 1777998686 | 23.89° C | 51% | 1014.5 hPa | 0 mm | - | 809 W/m² | - |
| 1777998384 | 24.44° C | 51% | 1014.5 hPa | 0 mm | - | 603 W/m² | - |
| 1777998081 | 24.44° C | 52% | 1014.5 hPa | 0 mm | - | 851 W/m² | - |
| 1777997778 | 24.44° C | 51% | 1014.3 hPa | 0 mm | - | 861 W/m² | - |
| 1777997475 | 24.44° C | 54% | 1014.5 hPa | 0 mm | - | 567 W/m² | - |
| 1777997173 | 23.89° C | 56% | 1014.2 hPa | 0 mm | - | 754 W/m² | - |
| 1777996870 | 23.89° C | 58% | 1014.4 hPa | 0 mm | - | 754 W/m² | - |
| 1777996566 | 23.89° C | 55% | 1014.3 hPa | 0 mm | - | 757 W/m² | - |
| 1777996263 | 23.89° C | 56% | 1014.6 hPa | 0 mm | - | 757 W/m² | - |
| 1777995959 | 23.89° C | 55% | 1014.4 hPa | 0 mm | - | 773 W/m² | - |
| 1777995655 | 23.33° C | 57% | 1014.6 hPa | 0 mm | - | 780 W/m² | - |
| 1777995353 | 23.33° C | 57% | 1014.6 hPa | 0 mm | - | 786 W/m² | - |
| 1777995050 | 23.33° C | 60% | 1014.9 hPa | 0 mm | - | 797 W/m² | - |
| 1777994746 | 23.33° C | 59% | 1014.9 hPa | 0 mm | - | 789 W/m² | - |
| 1777994442 | 23.33° C | 60% | 1015 hPa | 0 mm | - | 785 W/m² | - |
| 1777994137 | 22.78° C | 60% | 1014.8 hPa | 0 mm | - | 776 W/m² | - |
| 1777993835 | 22.22° C | 62% | 1014.9 hPa | 0 mm | - | 799 W/m² | - |
| 1777993531 | 22.78° C | 63% | 1014.9 hPa | 0 mm | - | 820 W/m² | - |
| 1777993228 | 22.22° C | 63% | 1014.9 hPa | 0 mm | - | 749 W/m² | - |
* Rain latest hour (hover to see other rain measurements)
** Current wind speed in m/s (hover to see current wind gust speed)